FloripaSat 1
1 44885U 19093G   25216.83086503  .00004420  00000-0  36958-3 0  9994
2 44885  97.8146 304.5642 0010299  18.0764 342.0823 14.98977513305179
RS-44
1 44909U 19096E   25216.45347561  .00000039  00000-0  10644-3 0  9992
2 44909  82.5217 190.1569 0217691 164.6411 196.1439 12.79742383261832
UPMSat 2
1 46276U 20061E   25216.81356106  .00100631  00000-0  61506-3 0  9992
2 46276  97.2390 293.3880 0001132 182.9627 177.1633 15.77071082274304
SALSAT
1 46495U 20068K   25216.85398069  .00006565  00000-0  27854-3 0  9999
2 46495  97.8639 197.5207 0010034 335.7897  24.2866 15.23432076267098
CubeSX-Sirius-HSE
1 47951U 21022V   25157.62701764  .07883385  25648-5  89537-3 0  9993
2 47951  97.4004  72.1904 0010275 223.9924 136.0557 16.36879307233400
CubeSX-HSE
1 47952U 21022W   25157.69972699  .06655353  25454-5  93288-3 0  9992
2 47952  97.3980  72.5414 0010307 219.3637 140.6911 16.34906352233436
GRBAlpha
1 47959U 21022AD  25160.45426279  .07940347  25506-5  90589-3 0  9995
2 47959  97.3899  75.6235 0011032 227.2558 132.7812 16.36806138232695
TUBIN
1 48900U 21059X   25216.81643087  .00044545  00000-0  45023-3 0  9990
2 48900  97.6769  30.8167 0002751  33.0897 327.0533 15.65201965228822
LEDSAT
1 49069U 21073D   25216.66114341  .00099339  00000-0  86312-3 0  9999
2 49069  97.3851 300.8390 0008802 221.6783 138.3809 15.68721292220204
CUTE
1 49263U 21088D   25216.20700624  .00026681  00000-0  48597-3 0  9999
2 49263  97.4484 294.1564 0007298  44.7055 315.4783 15.49433877213035
TeikyoSat 4
1 49396U 21102B   25216.16614710  .00001880  00000-0  12658-3 0  9991
2 49396  97.4079 252.5846 0010962 307.7975  52.2260 15.07844045204929
Z-Sat
1 49399U 21102E   25216.84058735  .00003531  00000-0  19308-3 0  9992
2 49399  97.3773 256.6844 0016173 268.3080  91.6300 15.14811658205491
KOSEN 1
1 49402U 21102H   25216.86862808  .00006300  00000-0  28702-3 0  9998
2 49402  97.3674 260.5599 0014277 237.9856 121.9993 15.20928688205846
HO-113
1 50466U 21131B   25216.87163327  .00000463  00000-0  15829-3 0  9993
2 50466  98.5102 305.9501 0003542 343.7209  16.3865 14.40869518189556
Foresail-1
1 52766U 22057AL  25176.64799660  .13857605  27391-5  25307-3 0  9992
2 52766  97.5832 331.2310 0012137 233.7199 258.4922 16.46795272172486
SNUGLITE 2
1 52899U 22065F   25216.63086317  .00001105  00000-0  22316-3 0  9992
2 52899  98.1758 358.0833 0006448 302.8112  57.2469 14.63323779164685
UmKA 1 (RS40S)
1 57172U 23091G   25216.85754694  .00005004  00000-0  26414-3 0  9990
2 57172  97.5548 271.9532 0015465 136.1569 224.0894 15.15886885116005
CubeBel-2 (EU11S)
1 57175U 23091K   25216.86587295  .00008073  00000-0  37500-3 0  9992
2 57175  97.5547 273.4633 0013108 141.5562 218.6609 15.20196375116109
VERONIKA
1 58261U 23174F   25216.80368162  .00680595  20824-3  14385-2 0  9994
2 58261  97.4043 307.2253 0009906 247.8120 112.2106 15.98747146 97563
ENSO
1 58470U 23185J   25216.87617742  .00070514  00000-0  80494-3 0  9996
2 58470  97.3695 294.0248 0006537 222.0883 137.9873 15.61958088 93809
EIRSAT-1
1 58472U 23185L   25216.84475670  .00252371  00000-0  11409-2 0  9999
2 58472  97.3617 297.1849 0007405 231.9242 128.1360 15.83287150 94015
SONATE-2
1 59112U 24043Q   25216.63153076  .00016393  00000-0  44907-3 0  9997
2 59112  97.5190 349.0168 0009562 273.5653  86.4498 15.37350612 78945
MO-122
1 60209U 24125G   25216.56595653  .00016511  00000-0  44382-3 0  9999
2 60209  97.2746  67.6078 0016329 298.0523  61.9070 15.37839724 60556
GRBBeta
1 60237U 24128C   25216.42687835  .00003006  00000-0  23055-3 0  9991
2 60237  61.9897 244.7772 0055472  69.3511 291.3516 15.03023464 58593
Curium One
1 60242U 24128H   25216.56544299  .00005424  00000-0  37436-3 0  9992
2 60242  61.9796 241.7249 0055543  65.7081 294.9799 15.05783186 58660
ROBUSTA-3A
1 60243U 24128J   25216.51934712  .00004531  00000-0  31978-3 0  9994
2 60243  61.9866 242.9048 0054593  63.3449 297.3219 15.05292817 58643
CatSat
1 60246U 24125J   25216.51323605  .00015889  00000-0  51152-3 0  9991
2 60246  97.2554  66.1138 0039881 253.9255 105.7594 15.31507024 58548
HYPERVIEW-1G (RS66S)
1 61772U 24199AP  25216.88094447  .00020205  00000-0  54904-3 0  9992
2 61772  97.3462  85.6760 0012409 359.8612   0.2627 15.37520442 85607
AO-123
1 61781U 24199AY  25216.87429050  .00005982  00000-0  21432-3 0  9998
2 61781  97.3480  83.9083 0015576   5.1888 354.9511 15.29008213 85485
ZIMSAT 2
1 61783U 24199BA  25216.84514164  .00038521  00000-0  83018-3 0  9991
2 61783  97.3429  86.7420 0011098 356.5823   3.5348 15.44427383 88829
HADES-R (SO-124)
1 62690U 25009CK  25216.17274338  .00037102  00000-0  11750-2 0  9999
2 62690  97.4067 296.8850 0002581 229.2899 130.8119 15.32643643 30657
HYDRA-T
1 62692U 25009CM  25216.47376848  .00038487  00000-0  12042-2 0  9995
2 62692  97.4073 297.2465 0002537 221.4399 138.6651 15.33022763 30701
JINJUSat 1B
1 63210U 25052A   25216.51010217  .00010752  00000-0  47769-3 0  9990
2 63210  97.4347 109.9437 0006058 116.4586 243.7271 15.21695166 21754
NUSHSAT 1
1 63211U 25052B   25216.23167314  .00011501  00000-0  50561-3 0  9998
2 63211  97.4335 109.6858 0006051 120.8429 239.3403 15.22036356 21719
TEVEL2-4
1 63213U 25052D   25216.19116708  .00011542  00000-0  51267-3 0  9995
2 63213  97.4249 109.4352 0004872 131.7380 228.4274 15.21687673 21705
TEVEL2-5
1 63214U 25052E   25216.52139114  .00011578  00000-0  51461-3 0  9994
2 63214  97.4251 109.7581 0004873 130.0666 230.0998 15.21665460 21753
TEVEL2-6
1 63215U 25052F   25215.27553335  .00011187  00000-0  49834-3 0  9998
2 63215  97.4250 108.5228 0004740 133.0179 227.1455 15.21599918 21561
TEVEL2-1
1 63217U 25052H   25216.21546345  .00010237  00000-0  45917-3 0  9991
2 63217  97.4227 109.3595 0004705 141.5406 218.6165 15.21385504 21704
TEVEL2-3
1 63218U 25052J   25216.21569265  .00010267  00000-0  46045-3 0  9994
2 63218  97.4227 109.3607 0004736 142.3189 217.8379 15.21389513 21702
TEVEL2-2
1 63219U 25052K   25216.47914318  .00010314  00000-0  46261-3 0  9999
2 63219  97.4229 109.6189 0004765 141.8261 218.3313 15.21386410 21741
TEVEL2-9
1 63237U 25052AD  25216.26036898  .00010664  00000-0  49565-3 0  9992
2 63237  97.4291 109.2670 0008369 167.0928 193.0523 15.20130335 21693
TEVEL2-7
1 63238U 25052AE  25216.26512764  .00010030  00000-0  46740-3 0  9993
2 63238  97.4297 109.2640 0008399 167.3426 192.8022 15.20055798 21696
TEVEL2-8
1 63239U 25052AF  25216.26828917  .00009936  00000-0  46346-3 0  9999
2 63239  97.4294 109.2584 0008504 166.9084 193.2373 15.20024588 21691
HYDRA-W
1 63490U 25052BL  25216.20863354  .00025680  00000-0  10042-2 0  9993
2 63490  97.4237 109.8492 0012176 165.1954 194.9643 15.25762330 21730
HADES-ICM (SO-125)
1 63492U 25052BN  25216.50423601  .00025138  00000-0  10002-2 0  9999
2 63492  97.4246 110.0764 0012264 168.0142 192.1390 15.25185608 21777
